Location: Kergrach
(48.3833°N, 4.5167°W)
Time: 04:52:57
(UTC+00:00)

Cosmos 1484 Rocket - Pass Details

Date: 18 February 2020
Orbit: 507 x 559 km, 97.4° (Epoch: 31 March)

Event Time Altitude Azimuth Distance (km) Brightness Sun altitude
Rises 05:00:13 0° 17° (NNE) 2,714 6.7 -24.0°
Reaches altitude 10° 05:02:23 10° 22° (NNE) 1,825 5.8 -23.6°
Maximum altitude 05:06:14 51° 100° (E) 699 3.6 -23.0°
Drops below altitude 10° 05:10:07 10° 177° (S) 1,833 5.4 -22.4°
Enters shadow 05:10:54 - 179° (S) 2,154 5.8 -22.2°
